Tracking 29511 objects as of 18-Sep-2024
HD Live streaming from Space Station
objects crossing your sky now

COSMOS 249 DEB

Track COSMOS 249 DEB now!
10-day predictions


NORAD ID: 14430
Int'l Code: 1968-091CV
Perigee: 750.2 km
Apogee: 1,803.1 km
Inclination: 62.2 °
Period: 110.9 minutes
Semi major axis: 7647 km
RCS: 0.0133 m2 (small)
Launch date: October 20, 1968
Source: Commonwealth of Independent States (former USSR) (CIS)
Launch site: TYURATAM MISSILE AND SPACE COMPLEX (TTMTR)

Note: This is SATELLITE DEBRIS
Your satellite tracking list
Your tracking list is empty




NASA's NSSDC Master Catalog

Two Line Element Set (TLE):
1 14430U 68091CV  24261.46054424  .00009310  00000-0  10544-1 0  9998
2 14430  62.2421  58.6191 0688372  36.0346 358.5318 12.98112345 17958
Source of the keplerian elements: AFSPC